Date,TemperatureHighF,TemperatureAvgF,TemperatureLowF,DewpointHighF,DewpointAvgF,DewpointLowF,HumidityHigh,HumidityAvg,HumidityLow,PressureMaxIn,PressureMinIn,WindSpeedMaxMPH,WindSpeedAvgMPH,GustSpeedMaxMPH,PrecipitationSumIn
2013-1-1,44.6,40.7,38.5,41.1,38.1,35.8,96,90,85,29.97,29.38,14,4,17,0.20
2013-1-2,50.4,45.4,39.4,49.8,44.7,37.5,98,97,93,30.15,29.97,10,2,10,0.43
2013-1-3,51.4,50.1,49.3,49.8,49.2,48.0,98,97,93,30.48,30.15,13,5,20,0.04
2013-1-4,50.2,49.2,48.0,49.6,48.4,47.1,98,97,94,30.53,30.48,9,3,10,0.04
2013-1-5,49.8,48.8,46.4,49.1,47.6,45.0,98,96,91,30.50,30.33,13,4,17,0.16
2013-1-6,48.2,46.4,43.9,47.7,45.7,42.4,98,97,94,30.50,30.27,8,2,10,0.28
2013-1-7,48.7,48.2,47.7,48.2,47.6,47.1,98,98,98,30.27,30.06,3,0,5,0.59
2013-1-8,50.5,48.0,44.1,50.0,46.3,41.1,98,94,84,30.24,30.00,12,3,12,0.39
2013-1-9,45.7,42.7,39.7,43.7,40.9,37.6,96,93,88,30.24,30.12,6,0,7,0.00
2013-1-10,41.0,37.3,35.5,38.5,36.4,33.9,98,96,93,30.12,30.03,5,1,7,0.00
2013-1-11,41.0,39.2,37.9,40.5,38.7,37.2,98,98,97,30.09,30.00,8,2,10,0.00
2013-1-12,38.7,37.5,36.3,37.1,35.9,34.5,98,94,90,30.18,29.97,8,3,10,0.00
2013-1-13,36.9,35.5,34.3,36.3,34.4,32.9,98,96,91,30.18,30.03,6,1,8,0.20
2013-1-14,37.4,35.5,32.5,36.9,33.7,29.8,98,93,86,30.03,29.83,7,2,12,0.24
2013-1-15,35.6,33.4,30.6,34.1,31.4,28.8,95,92,89,30.03,29.88,7,2,9,0.00
2013-1-16,33.1,32.0,30.2,28.9,28.1,27.3,93,85,80,30.00,29.85,8,4,9,0.00
2013-1-17,35.1,33.6,32.7,29.6,27.9,25.7,87,79,72,30.00,29.80,14,6,16,0.00
2013-1-18,34.9,33.5,31.8,28.8,23.0,19.2,80,65,54,29.80,29.59,16,8,23,0.00
2013-1-19,36.6,34.1,32.7,31.3,28.7,25.4,91,81,72,29.80,29.59,15,7,23,0.00
2013-1-20,33.8,33.1,32.5,31.0,28.9,27.2,92,85,77,29.77,29.59,12,6,14,0.00
2013-1-21,34.3,33.7,33.1,33.7,32.3,29.8,98,94,85,29.59,29.50,23,9,23,0.08
2013-1-22,36.0,34.8,33.6,33.9,32.7,31.2,96,92,86,29.88,29.53,15,6,20,0.08
2013-1-23,35.1,34.2,33.3,33.6,32.6,31.9,96,94,89,30.00,29.85,8,3,13,0.00
2013-1-24,37.1,34.9,33.8,34.8,31.7,29.0,97,88,74,30.09,30.00,7,2,10,0.00
2013-1-25,36.5,34.3,33.4,34.7,32.8,31.6,98,94,88,30.00,29.44,8,3,12,0.00
2013-1-26,45.5,37.9,33.6,45.0,36.3,33.1,98,94,83,29.65,28.97,14,3,14,1.32
2013-1-27,48.6,41.8,38.5,48.0,40.0,35.8,98,93,83,29.26,28.82,20,7,24,0.28
2013-1-28,46.0,42.4,39.4,45.0,40.2,35.8,98,92,82,29.38,28.91,17,8,24,0.39
2013-1-29,50.0,45.9,44.4,49.5,41.9,32.7,98,86,61,29.38,29.00,23,8,28,0.66
2013-1-30,45.3,43.2,40.1,40.0,36.4,32.4,91,77,63,29.74,29.15,22,8,27,0.16
2013-1-31,44.7,42.1,39.7,40.8,38.2,35.2,95,86,77,29.71,29.24,18,6,23,0.44
2013-2-1,43.3,40.0,34.2,42.3,35.3,26.8,96,84,66,29.91,29.41,12,3,13,0.24
2013-2-2,39.4,35.2,31.1,34.6,29.3,25.8,89,79,69,30.27,29.91,7,1,8,0.04
2013-2-3,48.4,44.4,37.2,47.8,41.6,34.6,98,90,76,30.09,29.59,23,8,23,0.39
2013-2-4,47.3,39.8,34.9,42.4,32.4,26.9,84,75,63,29.65,29.38,30,11,33,0.20
2013-2-5,43.3,38.6,34.5,39.1,32.6,27.1,94,79,60,29.68,29.15,25,9,30,0.24
2013-2-6,42.3,38.0,33.9,28.8,25.4,23.0,74,60,53,30.24,29.68,22,5,29,0.00
2013-2-7,39.7,37.3,34.5,34.3,31.6,27.1,89,80,74,30.21,30.06,12,2,12,0.00
2013-2-8,43.0,39.8,36.0,39.2,35.3,32.1,95,84,74,30.27,30.15,10,2,10,0.00
2013-2-9,40.6,39.6,37.4,40.1,38.9,36.9,98,97,95,30.18,29.85,9,3,10,0.16
2013-2-10,37.6,35.9,34.2,37.1,35.3,33.7,98,98,96,29.85,29.44,16,8,20,0.67
2013-2-11,41.0,37.2,34.9,36.4,31.8,26.6,98,81,64,30.00,29.50,13,7,20,0.04
2013-2-12,39.2,36.0,34.5,29.0,28.0,26.4,80,73,61,30.15,30.00,8,4,10,0.00
2013-2-13,41.5,35.2,32.9,41.0,32.1,24.7,98,89,66,30.09,29.56,9,4,10,0.65
2013-2-14,45.1,42.3,39.6,44.1,41.0,39.0,98,95,90,29.91,29.59,13,3,16,0.24
2013-2-15,48.0,43.1,38.1,42.0,39.3,34.3,93,86,74,30.18,29.91,10,2,11,0.00
2013-2-16,44.6,41.9,39.2,43.9,40.7,36.7,98,96,90,30.18,30.15,5,1,6,0.12
2013-2-17,48.0,43.4,36.3,43.4,38.4,32.2,97,83,70,30.18,30.12,6,2,8,0.00
2013-2-18,42.8,36.6,32.7,38.0,31.9,28.1,94,83,71,30.21,30.12,7,1,7,0.00
2013-2-19,43.2,35.9,29.7,36.8,30.9,26.3,92,83,61,30.21,30.18,7,2,15,0.00
2013-2-20,42.4,39.2,34.0,38.6,34.8,26.6,96,84,72,30.36,30.21,12,4,12,0.00
2013-2-21,37.6,34.1,30.0,27.5,24.5,20.4,82,69,56,30.39,30.33,9,4,11,0.00
2013-2-22,36.0,34.2,32.9,25.0,21.2,18.9,70,59,54,30.39,30.33,5,1,8,0.00
2013-2-23,38.1,34.3,32.5,29.5,25.3,22.1,83,70,56,30.48,30.33,5,1,6,0.00
2013-2-24,41.7,35.7,31.3,32.6,29.5,26.7,88,78,64,30.56,30.44,5,0,5,0.00
2013-2-25,43.5,35.9,30.2,34.2,29.3,25.8,90,77,62,30.68,30.56,7,2,8,0.00
2013-2-26,44.8,37.4,31.6,34.6,31.3,27.9,93,79,62,30.77,30.68,13,3,13,0.00
2013-2-27,44.1,36.1,30.9,39.5,32.6,26.3,94,87,80,30.77,30.65,3,0,5,0.00
2013-2-28,47.5,39.8,31.6,41.6,35.9,29.0,96,86,75,30.65,30.59,2,0,2,0.00
2013-3-1,48.9,42.1,36.0,40.3,34.2,29.8,87,74,56,30.62,30.53,5,0,6,0.00
2013-3-2,51.8,44.8,35.6,44.9,38.7,29.6,93,80,65,30.50,30.33,8,2,12,0.00
2013-3-3,46.0,44.5,42.3,43.6,39.9,35.9,91,84,77,30.33,30.18,3,0,5,0.00
2013-3-4,45.1,42.0,38.1,36.4,34.4,31.9,82,75,62,30.18,29.83,5,0,6,0.00
2013-3-5,47.3,40.8,35.4,37.9,33.6,30.9,86,76,58,29.83,29.74,8,1,10,0.00
2013-3-6,41.9,39.6,36.9,38.0,35.6,32.0,94,85,79,29.80,29.71,15,7,19,0.00
2013-3-7,43.5,41.1,39.4,43.0,39.8,37.4,98,95,87,29.71,29.59,20,11,29,0.20
2013-3-8,40.8,39.7,38.7,39.2,37.2,36.1,96,91,86,29.77,29.59,25,13,26,0.04
2013-3-9,39.4,38.0,35.8,37.5,33.4,25.2,95,84,65,29.97,29.74,18,10,25,0.04
2013-3-10,40.0,34.8,29.5,31.3,25.0,20.2,82,68,51,30.21,29.97,15,7,23,0.00
2013-3-11,37.6,31.9,27.0,22.3,17.8,14.4,71,57,43,30.24,30.21,15,4,18,0.00
2013-3-12,43.0,35.4,27.0,28.8,22.9,14.5,68,60,52,30.21,30.00,10,3,17,0.00
2013-3-13,45.3,38.5,33.3,30.8,24.1,20.1,76,57,43,30.09,29.94,8,2,11,0.00
2013-3-14,43.3,38.0,32.4,40.3,32.7,21.8,95,82,63,30.06,29.65,7,1,9,0.12
2013-3-15,47.3,41.8,36.3,42.1,37.8,31.1,97,86,64,29.65,29.44,8,2,12,0.04
2013-3-16,43.2,38.8,36.0,37.4,34.5,31.9,91,85,72,29.44,29.29,7,1,9,0.08
2013-3-17,42.8,38.1,35.6,40.0,36.0,33.5,95,92,87,29.35,29.20,9,3,14,0.08
2013-3-18,39.4,37.1,34.2,38.7,33.9,26.4,98,88,73,29.62,29.32,18,8,24,0.25
2013-3-19,41.5,35.9,33.6,33.2,29.0,25.6,96,77,59,29.74,29.59,25,12,30,0.00
2013-3-20,40.5,36.2,33.4,35.8,31.8,28.2,97,84,67,30.12,29.74,13,6,13,0.12
2013-3-21,41.5,35.5,31.1,32.3,26.6,22.2,93,71,51,30.15,30.00,31,8,35,0.00
2013-3-22,36.3,34.5,32.7,32.6,29.5,22.8,97,83,59,30.06,29.94,23,12,30,0.00
2013-3-23,35.0,33.8,32.9,31.5,25.5,19.4,94,72,56,30.24,30.03,21,10,30,0.00
2013-3-24,38.5,35.0,33.3,25.2,22.0,19.8,70,59,50,30.36,30.21,25,11,30,0.00
2013-3-25,36.9,34.4,32.7,29.9,25.8,21.9,82,71,60,30.36,30.33,15,7,18,0.00
2013-3-26,38.3,34.3,30.7,32.1,26.1,23.6,84,72,58,30.33,30.24,14,5,14,0.00
2013-3-27,42.6,35.7,30.2,30.3,26.5,23.5,85,70,51,30.24,30.18,12,4,14,0.00
2013-3-28,40.6,35.3,32.4,30.3,24.5,19.3,80,65,49,30.18,30.12,13,5,15,0.00
2013-3-29,42.2,35.4,31.3,29.5,24.5,20.0,79,65,50,30.12,30.00,14,4,17,0.00
2013-3-30,45.7,37.0,29.5,29.5,23.8,21.6,76,59,49,30.09,30.03,7,2,9,0.00
2013-3-31,43.3,37.9,32.2,26.2,22.5,20.2,71,55,42,30.09,30.03,13,5,14,0.00
2013-4-1,43.5,36.4,30.7,24.1,22.0,19.9,70,56,46,30.18,30.06,14,6,17,0.00
2013-4-2,49.4,40.2,33.6,29.4,24.6,21.5,63,54,44,30.33,30.18,10,4,12,0.00
2013-4-3,48.9,40.4,31.8,32.9,26.2,21.0,78,58,43,30.39,30.33,9,3,11,0.00
2013-4-4,49.1,41.9,34.0,30.2,26.0,22.7,66,54,42,30.39,30.33,10,3,13,0.00
2013-4-5,49.0,41.5,35.4,33.3,27.7,23.9,75,59,45,30.33,30.30,8,2,8,0.00
2013-4-6,53.2,41.5,31.3,36.3,28.9,22.4,76,61,51,30.36,30.27,7,2,9,0.00
2013-4-7,47.7,41.3,37.4,35.7,33.0,31.8,81,72,62,30.27,30.06,15,5,19,0.00
2013-4-8,43.9,39.4,34.5,34.8,28.0,22.1,83,65,48,30.06,29.83,14,7,17,0.00
2013-4-9,47.7,40.2,32.4,28.6,24.3,19.7,71,54,38,29.83,29.74,15,7,20,0.00
2013-4-10,47.3,41.3,36.7,37.0,32.9,28.6,82,72,59,29.80,29.68,12,5,14,0.00
2013-4-11,43.2,39.8,38.1,39.6,35.9,32.8,91,86,79,29.68,29.50,12,6,16,0.04
2013-4-12,42.2,39.3,36.0,40.6,37.5,33.9,96,94,87,29.74,29.44,14,4,15,0.24
2013-4-13,52.7,45.5,39.9,48.6,39.9,34.4,97,83,50,29.80,29.47,15,3,15,0.00
2013-4-14,57.2,51.8,48.6,52.4,47.5,43.8,98,86,64,29.50,29.41,25,10,30,0.00
2013-4-15,57.2,51.4,47.5,48.0,44.7,41.3,93,79,57,29.80,29.47,22,6,25,0.00
2013-4-16,51.4,48.4,45.7,46.5,42.0,35.8,95,80,58,29.91,29.38,20,9,33,0.00
2013-4-17,50.4,45.9,42.1,49.8,42.8,35.6,98,89,72,29.91,29.15,15,6,27,0.00
2013-4-18,53.3,48.3,44.7,47.2,42.4,37.2,98,81,60,30.00,29.15,23,8,23,0.00
2013-4-19,58.1,49.8,39.7,39.5,35.1,32.2,76,58,45,30.50,30.00,12,4,13,0.00
2013-4-20,58.3,51.3,42.4,43.7,38.9,34.5,80,63,48,30.50,30.21,14,4,19,0.00
2013-4-21,55.8,49.0,45.5,47.8,41.6,37.4,92,76,55,30.21,29.91,17,4,17,0.00
2013-4-22,53.8,48.4,45.5,49.4,41.6,38.9,98,78,61,29.91,29.71,20,7,29,0.00
2013-4-23,56.5,50.3,47.1,41.7,39.0,35.1,80,66,51,30.12,29.83,20,8,24,0.00
2013-4-24,56.5,50.0,46.0,47.4,39.8,31.4,94,70,47,30.33,29.97,10,3,15,0.00
2013-4-25,51.3,46.2,42.3,45.0,38.0,33.7,82,73,61,30.30,30.12,12,3,13,0.00
2013-4-26,54.1,46.3,40.6,43.1,36.7,34.0,84,70,52,30.12,29.97,15,4,22,0.00
2013-4-27,57.7,47.9,38.3,36.6,31.7,27.8,74,55,40,30.21,30.03,13,4,13,0.00
2013-4-28,52.7,46.3,42.8,44.6,39.1,31.4,95,77,57,30.03,29.71,17,6,22,0.00
2013-4-29,55.7,48.3,42.4,40.6,36.4,33.2,82,64,46,30.18,29.68,22,8,24,0.00
2013-4-30,60.1,50.3,38.5,38.1,33.8,30.2,74,55,38,30.39,30.18,10,4,15,0.00
2013-5-1,58.5,51.0,44.1,46.0,36.6,29.3,86,59,43,30.33,30.15,13,5,16,0.00
2013-5-2,50.4,45.3,37.8,45.9,35.9,26.5,91,70,55,30.33,30.06,9,2,14,0.00
2013-5-3,50.5,48.4,43.6,49.7,46.1,37.8,97,92,80,30.06,29.74,16,6,21,0.00
2013-5-4,54.1,46.6,40.1,43.6,39.0,34.3,85,75,54,29.94,29.80,13,5,15,0.00
2013-5-5,58.8,52.2,47.8,55.0,48.7,42.3,97,88,72,30.12,29.94,12,4,13,0.00
2013-5-6,53.1,51.5,50.2,51.4,49.5,48.2,95,93,89,30.15,30.06,7,1,9,0.00
2013-5-7,69.3,59.0,45.7,52.5,46.9,42.1,95,67,39,30.15,29.91,7,2,10,0.00
2013-5-8,59.7,53.2,49.8,54.2,46.2,39.4,95,78,51,29.91,29.53,20,8,24,0.00
2013-5-9,51.6,48.7,46.4,46.2,42.3,38.8,90,79,68,29.59,29.41,14,4,14,0.00
2013-5-10,58.9,49.2,41.9,49.3,43.8,38.0,90,82,63,29.71,29.47,9,2,10,0.00
2013-5-11,50.4,47.8,44.6,47.2,43.6,41.0,95,86,77,29.85,29.53,13,3,15,0.00
2013-5-12,51.1,47.5,43.3,49.5,43.9,36.9,96,87,78,29.85,29.68,10,3,15,0.00
2013-5-13,50.7,44.5,39.4,42.8,38.7,35.2,88,80,61,29.71,29.50,21,5,23,0.00
2013-5-14,52.7,46.6,42.1,46.1,40.4,36.3,93,80,58,29.50,29.41,12,4,16,0.00
2013-5-15,61.7,50.4,40.8,43.5,37.3,34.5,82,63,40,29.50,29.41,15,5,18,0.00
2013-5-16,55.8,49.9,43.0,40.8,36.9,34.5,77,62,47,29.77,29.47,8,2,10,0.00
2013-5-17,66.7,58.8,43.0,43.4,39.6,35.9,79,52,38,29.97,29.77,9,3,12,0.00
2013-5-18,66.7,66.7,66.7,40.3,40.3,40.3,38,38,38,29.94,29.77,10,2,17,0.00
2013-5-19,66.7,66.7,66.7,40.3,40.3,40.3,38,38,38,30.06,29.88,3,0,3,0.00
2013-5-20,66.7,66.7,66.7,40.3,40.3,40.3,38,38,38,30.12,30.00,12,3,18,0.00
2013-5-21,66.7,66.7,66.7,40.3,40.3,40.3,38,38,38,30.21,30.12,13,5,15,0.00
2013-5-22,66.7,66.7,66.7,40.3,40.3,40.3,38,38,38,30.21,30.18,12,3,12,0.00
2013-5-23,66.7,66.7,66.7,40.3,40.3,40.3,38,38,38,30.03,30.03,13,7,17,0.00
2013-6-16,66.7,66.7,66.7,40.3,40.3,40.3,38,38,38,29.85,29.83,0,0,0,0.00
2013-7-11,66.7,66.7,66.7,40.3,40.3,40.3,38,38,38,30.39,30.39,3,3,7,0.00
2013-7-16,66.7,66.7,66.7,40.3,40.3,40.3,38,38,38,30.30,30.30,3,3,5,0.00
2013-8-3,66.7,66.7,66.7,40.3,40.3,40.3,38,38,38,29.91,29.77,8,2,12,0.00
2013-8-4,66.7,66.7,66.7,40.3,40.3,40.3,38,38,38,29.91,29.88,1,0,4,0.00
2013-8-8,66.7,66.7,66.7,40.3,40.3,40.3,38,38,38,30.12,29.97,5,1,6,0.00
2013-8-9,66.7,66.7,66.7,40.3,40.3,40.3,38,38,38,30.21,29.94,14,2,14,0.00
2013-8-10,66.7,66.7,66.7,40.3,40.3,40.3,38,38,38,30.21,30.06,6,1,8,0.00
2013-8-11,66.7,66.7,66.7,40.3,40.3,40.3,38,38,38,30.06,29.94,5,1,7,0.00
2013-8-19,66.7,66.7,66.7,40.3,40.3,40.3,38,38,38,30.06,30.06,3,2,6,0.00
2013-8-22,66.7,66.7,66.7,40.3,40.3,40.3,38,38,38,30.21,30.21,3,2,3,0.00
2013-8-24,66.7,66.7,66.7,40.3,40.3,40.3,38,38,38,29.97,29.97,2,2,3,0.00
2013-8-29,66.7,66.7,66.7,40.3,40.3,40.3,38,38,38,30.09,30.09,0,0,3,0.00
2013-9-4,66.7,66.7,66.7,40.3,40.3,40.3,38,38,38,30.15,30.15,0,0,3,0.00
2013-9-6,66.7,66.7,66.7,40.3,40.3,40.3,38,38,38,30.03,29.97,8,2,8,0.00
2013-9-7,66.7,66.7,66.7,40.3,40.3,40.3,38,38,38,29.97,29.83,9,1,10,0.00
2013-9-8,66.7,66.7,66.7,40.3,40.3,40.3,38,38,38,30.03,29.94,6,2,12,0.00
2013-9-14,66.7,66.7,66.7,40.3,40.3,40.3,38,38,38,30.09,29.97,0,0,2,0.00
2013-9-15,66.7,66.7,66.7,40.3,40.3,40.3,38,38,38,29.97,29.26,15,3,21,0.00
2013-9-16,66.7,66.7,66.7,40.3,40.3,40.3,38,38,38,29.41,29.32,20,4,23,0.00
2013-9-17,66.7,66.7,66.7,40.3,40.3,40.3,38,38,38,29.47,29.35,18,5,20,0.00
2013-9-18,66.7,66.7,66.7,40.3,40.3,40.3,38,38,38,29.56,29.47,0,0,0,0.00
2013-10-9,66.7,66.7,66.7,40.3,40.3,40.3,38,38,38,30.24,30.03,24,6,25,0.00
2013-10-10,66.7,66.7,66.7,40.3,40.3,40.3,38,38,38,30.50,30.24,10,2,13,0.00
2013-10-11,66.7,66.7,66.7,40.3,40.3,40.3,38,38,38,30.56,30.48,8,1,10,0.00
2013-10-12,66.7,66.7,66.7,40.3,40.3,40.3,38,38,38,30.56,30.33,10,3,13,0.00
2013-10-13,66.7,66.7,66.7,40.3,40.3,40.3,38,38,38,30.33,30.12,13,2,13,0.00
2013-10-14,66.7,66.7,66.7,40.3,40.3,40.3,38,38,38,30.12,30.00,6,1,9,0.00
2013-10-15,66.7,66.7,66.7,40.3,40.3,40.3,38,38,38,30.00,29.97,3,1,9,0.00
2013-10-31,66.7,66.7,66.7,40.3,40.3,40.3,38,38,38,29.65,29.65,3,3,12,0.00
2013-12-3,66.7,66.7,66.7,40.3,40.3,40.3,38,38,38,30.27,30.15,8,3,12,0.00
2013-12-4,66.7,66.7,66.7,40.3,40.3,40.3,38,38,38,30.39,30.12,14,4,22,0.00
2013-12-5,66.7,66.7,66.7,40.3,40.3,40.3,38,38,38,30.21,29.50,32,11,47,0.00
2013-12-6,66.7,66.7,66.7,40.3,40.3,40.3,38,38,38,30.21,30.18,16,10,17,0.00
2013-12-7,66.7,66.7,66.7,40.3,40.3,40.3,38,38,38,30.09,30.09,5,3,8,0.00
2013-12-14,66.7,66.7,66.7,40.3,40.3,40.3,38,38,38,29.85,29.41,30,10,38,0.00
2013-12-15,66.7,66.7,66.7,40.3,40.3,40.3,38,38,38,29.85,29.56,18,5,32,0.00
2013-12-16,66.7,66.7,66.7,40.3,40.3,40.3,38,38,38,29.56,29.53,17,6,20,0.00
2013-12-17,66.7,66.7,66.7,40.3,40.3,40.3,38,38,38,29.85,29.74,17,8,17,0.00
2013-12-18,66.7,66.7,66.7,40.3,40.3,40.3,38,38,38,29.74,28.76,26,8,34,0.00
2013-12-19,66.7,66.7,66.7,40.3,40.3,40.3,38,38,38,29.50,28.79,20,8,27,0.00
2013-12-20,66.7,66.7,66.7,40.3,40.3,40.3,38,38,38,29.74,29.38,18,7,26,0.00
2013-12-21,66.7,66.7,66.7,40.3,40.3,40.3,38,38,38,29.50,29.29,17,6,24,0.00
2013-12-22,66.7,66.7,66.7,40.3,40.3,40.3,38,38,38,29.53,29.32,17,7,22,0.00
2013-12-23,66.7,66.7,66.7,40.3,40.3,40.3,38,38,38,29.53,28.29,21,6,22,0.00
2013-12-24,66.7,66.7,66.7,40.3,40.3,40.3,38,38,38,28.44,28.26,29,12,44,0.00
2013-12-25,66.7,66.7,66.7,40.3,40.3,40.3,38,38,38,29.09,28.44,17,7,23,0.00
2013-12-26,66.7,66.7,66.7,40.3,40.3,40.3,38,38,38,29.32,28.61,22,3,22,0.00
2013-12-27,66.7,66.7,66.7,40.3,40.3,40.3,38,38,38,28.79,28.14,26,9,32,0.00
2013-12-28,66.7,66.7,66.7,40.3,40.3,40.3,38,38,38,29.35,28.79,13,5,24,0.00
2014-1-2,66.7,66.7,66.7,40.3,40.3,40.3,38,38,38,29.00,28.91,9,6,10,0.00